カタログに戻る

ONEWEB-0468

運用中通信PO
NORAD 51652·PAYLOAD·🇬🇧 United Kingdom

打ち上げ Feb 10, 2022 から Guiana Space Centre

Loading…

次のパス (今後24時間)

TLE

最新Source: CelesTrak SupGP

元期: Sep 14, 2026, 13:17 UTC

1 51652C 22012AG  26257.55364998 -.00002940  00000+0 -84317-2 0  2575
2 51652  87.8908  18.4784 0001886  96.1423  16.5935 13.10378109    14

AllMySatでONEWEB-0468をリアルタイム追跡

Download on the App Store